Location: Petrozavodsk
(61.7955°N, 34.3748°E)
Time: 12:04:54
(UTC+03:00)

Envisat - Visible Passes

Search period start: 04 March 2024 00:00
Search period end: 14 March 2024 00:00
Orbit: 762 x 764 km, 98.3° (Epoch: 03 March)

Date Brightness Start Highest point End Pass type
(mag) Time Alt. Az. Time Alt. Az. Time Alt. Az.
04 Mar 5.0 03:06:59 10° NE 03:11:02 23° E 03:13:29 17° SE visible
04 Mar 2.9 04:45:35 10° NNE 04:50:43 89° ESE 04:53:39 26° SSW visible
04 Mar 4.0 06:24:58 10° N 06:29:15 28° NW 06:33:31 10° WSW visible
05 Mar 5.6 02:30:32 10° NE 02:33:08 14° E 02:35:44 10° ESE visible
05 Mar 3.6 04:08:17 10° NNE 04:13:18 54° E 04:16:03 26° SSE visible
05 Mar 3.5 05:47:29 10° NNE 05:52:15 42° WNW 05:56:14 14° WSW visible
06 Mar 4.5 03:31:09 10° NNE 03:35:43 32° E 03:38:28 20° SE visible
06 Mar 3.0 05:10:03 10° NNE 05:15:06 67° WNW 05:18:38 20° SW visible
07 Mar 5.2 02:54:16 10° NE 02:57:57 20° E 03:00:52 13° SE visible
07 Mar 3.1 04:32:40 10° NNE 04:37:47 76° ESE 04:41:03 23° S visible
07 Mar 3.9 06:12:00 10° N 06:16:28 32° NW 06:20:55 10° WSW visible
08 Mar 5.7 02:18:19 10° ENE 02:19:59 11° ENE 02:21:38 10° E visible
08 Mar 3.9 03:55:25 10° NNE 04:00:19 45° E 04:03:27 21° SSE visible
08 Mar 3.3 05:34:31 10° NNE 05:39:25 49° WNW 05:43:37 14° SW visible
09 Mar 4.8 03:18:20 10° NNE 03:22:40 27° E 03:25:51 15° SE visible
09 Mar 2.9 04:57:06 10° NNE 05:02:12 78° WNW 05:06:02 18° SSW visible
10 Mar 5.4 02:41:38 10° NE 02:44:50 16° E 02:48:01 10° ESE visible
10 Mar 3.3 04:19:46 10° NNE 04:24:50 64° ESE 04:28:26 19° S visible
10 Mar 3.7 05:59:01 10° N 06:03:39 36° NW 06:08:16 10° WSW visible
11 Mar 4.2 03:42:33 10° NNE 03:47:18 38° E 03:50:50 17° SSE visible
11 Mar 3.1 05:21:33 10° NNE 05:26:33 57° WNW 05:31:00 13° SW visible
12 Mar 5.0 03:05:34 10° NE 03:09:36 23° E 03:13:14 12° SE visible
12 Mar 3.0 04:44:10 10° NNE 04:49:17 89° ESE 04:53:25 16° SSW visible
13 Mar 5.6 02:29:08 10° NE 02:31:41 14° ENE 02:34:14 10° ESE visible
13 Mar 3.6 04:06:51 10° NNE 04:11:52 54° E 04:15:49 16° S visible
13 Mar 3.5 05:46:03 10° NNE 05:50:49 42° WNW 05:55:35 10° SW visible
